Flag for Spain Weather past 2 weeks in A Coruña, Spain

Now
68 °F

Mild.


Feels Like: 68 °F
Forecast: 58 / 70 °F
Wind: 8 mph from Northwest

Location: La Coruna

Current Time: Jul 4, 2015 at 4:33:12 PM

Latest Report: Jul 4, 2015 at 3:00 PM


Visibility: 13 mi

Pressure: 30.22 "Hg

Humidity: 78%

Dew point: 61 °F

Location of A CoruñaLocation

Historic Weather in A Coruña — Graph

°F

A Coruña temperature yesterday

Maximum temperature yesterday: 79 °F (at 4:00 PM)
Minimum temperature yesterday: 60 °F (at 7:00 AM)
Average temperature yesterday: 68 °F

Past Weeks' High & Low Weather Summary

 TemperatureHumidityPressure
High80 °F (Jun 29, 8:00 PM)99% (Jun 23, 8:00 AM)30.26 "Hg (Jun 23, 8:00 AM)
Low58 °F (Jun 20, 5:00 AM)28% (Jul 3, 6:00 PM)29.91 "Hg (Jul 1, 10:00 AM)
Average66 °F80%30.10 "Hg
* Reported Jun 19 5:00 PM — Jul 4 3:00 PM, A Coruña, Weather by CustomWeather, © 2015

Note: Actual official high and low records may vary slightly from our data, if they occured in-between our weather recording intervals... More about our weather records

Advertising

A Coruña weather history for previous 24 hours

 ConditionsComfort  
Time TempWeatherWind HumidityBarometerVisibility
3:00 PM
Sat, Jul 4
68 °FMild.8 mph78%30.22 "Hg12 mi
2:00 PM70 °FOvercast.6 mph67%30.22 "Hg12 mi
1:00 PM68 °FMild.7 mph77%30.22 "Hg12 mi
12:00 PM69 °FMild.7 mph75%30.22 "Hg12 mi
11:00 AM69 °FPartly sunny.8 mph77%30.22 "Hg9 mi
10:00 AM67 °FMild.6 mph85%30.20 "Hg12 mi
9:00 AM64 °FMild.3 mph90%30.21 "Hg12 mi
8:00 AM64 °FOvercast.3 mph93%30.20 "Hg9 mi
7:00 AM64 °FMild.6 mph91%30.18 "Hg12 mi
6:00 AM66 °FMild.1 mph84%30.17 "Hg12 mi
5:00 AM66 °FOvercast.3 mph83%30.16 "Hg9 mi
4:00 AM66 °FMild.3 mph83%30.16 "Hg12 mi
3:00 AM65 °FMild.6 mph84%30.16 "Hg12 mi
2:00 AM66 °FOvercast.6 mph83%30.16 "Hg16 mi
1:00 AM65 °FMild.8 mph82%30.15 "Hg4 mi
12:00 AM66 °FMild.6 mph78%30.15 "Hg4 mi
11:00 PM
Fri, Jul 3
68 °FPassing clouds.7 mph73%30.13 "Hg16 mi
10:00 PM70 °FMild.13 mph62%30.11 "Hg12 mi
9:00 PM70 °FMild.13 mph56%30.10 "Hg12 mi
8:00 PM72 °FMild.10 mph48%30.06 "Hg12 mi
7:00 PM74 °FMild.15 mph39%30.05 "Hg12 mi
6:00 PM77 °FPleasantly warm.20 mph28%30.04 "Hg12 mi
5:00 PM78 °FPleasantly warm.13 mph29%30.03 "Hg12 mi
4:00 PM79 °FPleasantly warm.9 mph29%30.02 "Hg12 mi
Weather by CustomWeather, © 2015

See weather overviewHow to use our weather pages